SL-8 R/B - Orbit

View from above orbital plane
View from above orbital plane
View from above satellite
View from above satellite

Ground track
Ground track

The orbit data is extracted from the following two-line orbital elements,

1 33066U 08031G   13168.35964954  .00000009  00000-0  34759-4 0  5160
2 33066 048.4441 098.6681 0007546 065.2447 084.7976 14.68406834267979
Epoch (UTC): 17 June 2013 08:37:53
Eccentricity: 0.0007546
inclination: 48.4441°
perigee height: 661 km
apogee height: 671 km
right ascension of ascending node: 98.6681°
argument of perigee: 65.2447°
revolutions per day: 14.68406834
mean anomaly at epoch: 84.7976°
orbit number at epoch: 26797

The dashed part of the orbit path shows where the satellite is in the earth's shadow,  

Developed and maintained by Chris Peat, Heavens-Above GmbH. Please read the updated FAQ before sending e-mail. Imprint. DLR